ON1TG-13 Weather Reports


Display with metric or nautical units.
time (UTC)temp
F
wind
direction
speed
MPH
gust
MPH
rain 1hr
in
rain 24hr
in
rain mn
in
humidity
%
barometer
mb
20260507204126 69 41 4.0 6.0 0.00 0.00 0.00 21 1016.6
20260507202619 70 38 4.0 55.0 0.00 0.00 0.00 21 1016.5
20260507201111 70 40 5.0 7.0 0.00 0.00 0.00 21 1016.4
20260507195604 70 41 6.0 8.0 0.00 0.00 0.00 21 1016.2
20260507194057 69 46 6.0 8.0 0.00 0.00 0.00 21 1016.1
20260507192548 71 41 6.0 9.0 0.00 0.00 0.00 21 1016.0
20260507191040 70 37 6.0 9.0 0.00 0.00 0.00 21 1015.9
20260507185533 70 36 5.0 8.0 0.00 0.00 0.00 21 1015.9
20260507184026 71 38 5.0 8.0 0.00 0.00 0.00 21 1015.9
20260507182519 70 39 6.0 9.0 0.00 0.00 0.00 21 1016.0
20260507181010 70 25 6.0 11.0 0.00 0.00 0.00 21 1015.9
20260507175503 69 38 9.0 15.0 0.00 0.00 0.00 21 1016.0
20260507173956 68 44 10.0 13.0 0.00 0.00 0.00 21 1015.9
20260507172448 70 36 8.0 10.0 0.00 0.00 0.00 21 1016.0
20260507170940 70 33 8.0 12.0 0.00 0.00 0.00 21 1016.1
20260507165433 70 34 7.0 14.0 0.00 0.00 0.00 21 1016.1
20260507163926 72 19 8.0 14.0 0.00 0.00 0.00 21 1016.0
20260507162419 71 27 9.0 14.0 0.00 0.00 0.00 21 1016.2
20260507160912 71 20 8.0 15.0 0.00 0.00 0.00 21 1016.1
20260507155404 72 21 10.0 17.0 0.00 0.00 0.00 21 1016.1
20260507153857 73 16 10.0 17.0 0.00 0.00 0.00 21 1015.8
20260507152350 73 20 10.0 20.0 0.00 0.00 0.00 21 1015.9
20260507145335 72 17 10.0 19.0 0.00 0.00 0.00 21 1016.0
20260507143828 71 18 9.0 17.0 0.00 0.00 0.00 21 1016.1
20260507142320 71 19 8.0 17.0 0.00 0.00 0.00 21 1016.0
20260507140813 72 20 8.0 16.0 0.00 0.00 0.00 21 1016.1
20260507135306 72 12 8.0 17.0 0.00 0.00 0.00 21 1016.1
20260507133759 71 13 9.0 16.0 0.00 0.00 0.00 21 1016.2
20260507132252 73 19 8.0 16.0 0.00 0.00 0.00 21 1016.0
20260507130744 75 19 7.0 14.0 0.00 0.00 0.00 21 1016.2
20260507125236 73 24 8.0 16.0 0.00 0.00 0.00 21 1016.2
20260507123728 72 25 9.0 17.0 0.00 0.00 0.00 21 1016.1
20260507122220 74 20 7.0 15.0 0.00 0.00 0.00 21 1016.0
20260507120712 73 18 9.0 17.0 0.00 0.00 0.00 21 1016.1
20260507115206 73 21 11.0 19.0 0.00 0.00 0.00 21 1016.0
20260507113728 75 25 8.0 16.0 0.00 0.00 0.00 21 1016.0
20260507112151 75 18 8.0 16.0 0.00 0.00 0.00 21 1015.9
20260507110643 74 12 8.0 14.0 0.00 0.00 0.00 21 1016.1
20260507105145 76 19 6.0 13.0 0.00 0.00 0.00 21 1016.1
20260507103629 76 17 4.0 13.0 0.00 0.00 0.00 21 1016.1
20260507102121 74 13 6.0 14.0 0.00 0.00 0.00 21 1016.2
20260507100614 71 359 9.0 16.0 0.00 0.00 0.00 21 1016.1
20260507095107 73 358 8.0 14.0 0.00 0.00 0.00 21 1016.0
20260507093559 73 356 7.0 14.0 0.00 0.00 0.00 21 1015.8
20260507090544 83 128 2.0 5.0 0.00 0.00 0.00 21 1015.8
20260507085037 76 45 3.0 6.0 0.00 0.00 0.00 21 1015.7
20260507083528 74 39 4.0 8.0 0.00 0.00 0.00 21 1015.6
20260507082021 74 69 3.0 27.0 0.00 0.00 0.00 21 1015.6
20260507080514 70 47 5.0 10.0 0.00 0.00 0.00 21 1015.6
20260507075007 71 62 4.0 8.0 0.00 0.00 0.00 21 1015.5
20260507073459 68 63 5.0 8.0 0.00 0.00 0.00 21 1015.5
20260507071953 66 49 7.0 11.0 0.00 0.00 0.00 21 1015.4
20260507070444 67 52 6.0 11.0 0.00 0.00 0.00 21 1015.3
20260507064937 67 43 8.0 11.0 0.00 0.00 0.00 21 1015.1
20260507063429 64 50 8.0 11.0 0.00 0.00 0.00 21 1015.1
20260507061922 67 46 7.0 11.0 0.00 0.00 0.00 21 1015.1
20260507060414 66 44 8.0 13.0 0.00 0.00 0.00 21 1014.9
20260507054903 65 41 8.0 15.0 0.00 0.00 0.00 21 1014.8
20260507053344 65 43 9.0 14.0 0.00 0.00 0.00 21 1014.6
20260507051827 67 36 6.0 10.0 0.00 0.00 0.00 21 1014.7
20260507050258 64 44 6.0 11.0 0.00 0.00 0.00 21 1014.5
20260507044732 65 40 7.0 12.0 0.00 0.00 0.00 21 1014.3
20260507043207 65 37 8.0 15.0 0.00 0.00 0.00 21 1014.1
20260507041635 64 36 9.0 14.0 0.00 0.00 0.00 21 1014.0
20260507040055 68 28 7.0 12.0 0.00 0.00 0.00 21 1014.0
20260507034502 67 26 8.0 12.0 0.00 0.00 0.00 21 1013.8
20260507032916 69 21 6.0 11.0 0.00 0.00 0.00 21 1013.7
20260507031344 69 17 6.0 11.0 0.00 0.00 0.00 21 1013.6
20260507025818 70 20 4.0 9.0 0.00 0.00 0.00 21 1013.5
20260507022735 70 19 6.0 11.0 0.00 0.00 0.00 21 1013.4
20260507021216 69 16 6.0 11.0 0.00 0.00 0.00 21 1013.4
20260507015704 71 14 7.0 14.0 0.00 0.00 0.00 21 1013.2
20260507014152 69 14 9.0 15.0 0.00 0.00 0.00 21 1013.1
20260507012639 68 10 8.0 21.0 0.00 0.00 0.00 21 1013.1
20260507011131 67 8 10.0 19.0 0.00 0.00 0.00 21 1013.1
20260507005620 69 5 8.0 16.0 0.00 0.00 0.00 21 1013.1
20260507004105 67 13 10.0 19.0 0.00 0.00 0.00 21 1013.0
20260507002554 69 10 10.0 19.0 0.00 0.00 0.00 21 1013.1
20260507001046 67 359 12.0 21.0 0.00 0.00 0.00 21 1013.1
20260506235539 68 10 9.0 20.0 0.00 0.00 0.00 21 1013.2
20260506234025 68 2 10.0 17.0 0.00 0.00 0.00 21 1013.0
20260506232513 67 10 10.0 19.0 0.00 0.00 0.00 21 1012.9
20260506230957 67 12 10.0 20.0 0.00 0.00 0.00 21 1013.0
20260506225442 68 17 9.0 18.0 0.00 0.00 0.00 21 1012.9
20260506223923 68 8 10.0 16.0 0.00 0.00 0.00 21 1012.7
20260506222402 68 359 8.0 15.0 0.00 0.00 0.00 21 1012.9
20260506220845 68 358 9.0 18.0 0.00 0.00 0.00 21 1012.8
20260506215336 69 8 8.0 18.0 0.00 0.00 0.00 21 1012.7
20260506213826 69 12 8.0 18.0 0.00 0.00 0.00 21 1012.6
20260506212319 67 0 10.0 17.0 0.00 0.00 0.00 21 1012.7
20260506210807 68 0 10.0 16.0 0.00 0.00 0.00 21 1012.7
20260506205255 69 350 8.0 19.0 0.00 0.00 0.00 21 1012.6